Vidsel, Sweden

1:56 AM CEST on May 25, 2017 (GMT +0200)
Vidsel Air Base

Weather History for ESPE - December, 2013

Change the Weather History Date:

Thursday, December 12, 2013

  Actual Average Record
Temperature  
Mean Temperature 32 °F -  
Max Temperature 39 °F - - ()
Min Temperature 26 °F - - ()
Degree Days  
Heating Degree Days 32    
Moisture  
Dew Point 29 °F    
Average Humidity 86    
Maximum Humidity 100    
Minimum Humidity 61    
Precipitation  
Precipitation 0.00 in - - ()
Sea Level Pressure  
Sea Level Pressure 29.35 in    
Wind  
Wind Speed 4 mph ()    
Max Wind Speed 15 mph    
Max Gust Speed 24 mph    
Visibility 4.6 miles    
Events Snow    
T = Trace of Precipitation, MM = Missing Value Source: Averaged Metar Reports

Daily Weather History Graph

Daily Weather History Graph

Search for Another Location

Airport or City:

Trip Planner

Search our weather history database for the weather conditions in past years. The results will help you decide how hot, cold, wet, or windy it might be!

Date:

Astronomy

Dec. 12, 2013 Rise Set
Actual Time 9:57 AM CET 1:08 PM CET
Civil Twilight 8:22 AM CET 2:43 PM CET
Nautical Twilight 7:07 AM CET 3:58 PM CET
Astronomical Twilight 6:02 AM CET 5:03 PM CET
Moon 12:07 PM CET (12/12) 2:51 AM CET (12/12)
Length of Visible Light 6h 20m
Length of Day
3h 11m
Waxing Gibbous, 78% of the Moon is Illuminated
Dec 12
Waxing Gibbous
Dec 17
Full
Dec 25
Last Quarter
Jan 1
New
Jan 8
First Quarter

Hourly Weather History & Observations

Time (CET) Temp. Windchill Dew Point Humidity Pressure Visibility Wind Dir Wind Speed Gust Speed Precip Events Conditions
12:20 AM 39.2 °F 35.0 °F 26.6 °F 61% 29.68 in 6.2 mi West 5.8 mph - N/A   Mostly Cloudy
12:50 AM 37.4 °F 32.1 °F 26.6 °F 65% 29.68 in 6.2 mi West 6.9 mph - N/A   Unknown
1:20 AM 37.4 °F 31.4 °F 26.6 °F 65% 29.68 in 6.2 mi West 8.1 mph - N/A   Mostly Cloudy
1:50 AM 35.6 °F 31.7 °F 26.6 °F 70% 29.65 in 6.2 mi WNW 4.6 mph - N/A   Overcast
2:20 AM 35.6 °F 32.8 °F 26.6 °F 70% 29.65 in 6.2 mi West 3.5 mph - N/A   Overcast
2:50 AM 35.6 °F 29.9 °F 26.6 °F 70% 29.65 in 6.2 mi West 6.9 mph - N/A   Mostly Cloudy
3:20 AM 37.4 °F 32.1 °F 28.4 °F 70% 29.65 in 6.2 mi WSW 6.9 mph - N/A   Overcast
3:50 AM 35.6 °F 30.7 °F 28.4 °F 75% 29.62 in 6.2 mi West 5.8 mph - N/A   Mostly Cloudy
4:20 AM 35.6 °F 30.7 °F 28.4 °F 75% 29.62 in 6.2 mi West 5.8 mph - N/A   Mostly Cloudy
4:50 AM 32.0 °F 27.5 °F 26.6 °F 80% 29.59 in 6.2 mi NW 4.6 mph - N/A   Partly Cloudy
5:20 AM 32.0 °F 26.4 °F 26.6 °F 80% 29.59 in 6.2 mi WNW 5.8 mph - N/A   Partly Cloudy
5:50 AM 30.2 °F 25.4 °F 24.8 °F 80% 29.56 in 6.2 mi NW 4.6 mph - N/A   Partly Cloudy
6:20 AM 28.4 °F 23.3 °F 24.8 °F 86% 29.56 in 6.2 mi WNW 4.6 mph - N/A   Partly Cloudy
6:50 AM 30.2 °F - 26.6 °F 86% 29.53 in 6.2 mi Variable 1.2 mph - N/A   Mostly Cloudy
7:20 AM 26.6 °F - 23.0 °F 86% 29.53 in 6.2 mi Calm Calm - N/A   Mostly Cloudy
7:50 AM 32.0 °F - 28.4 °F 87% 29.50 in 6.2 mi Calm Calm - N/A   Overcast
8:20 AM 28.4 °F - 26.6 °F 93% 29.50 in 6.2 mi Calm Calm - N/A   Overcast
8:50 AM 28.4 °F - 24.8 °F 86% 29.50 in 6.2 mi Calm Calm - N/A   Overcast
9:20 AM 30.2 °F - 26.6 °F 86% 29.47 in 6.2 mi Calm Calm - N/A   Overcast
9:50 AM 30.2 °F - 26.6 °F 86% 29.44 in 6.2 mi Variable 1.2 mph - N/A   Overcast
10:20 AM 30.2 °F - 28.4 °F 93% 29.44 in 6.2 mi Calm Calm - N/A   Overcast
12:20 PM 30.2 °F - 28.4 °F 93% 29.36 in 6.2 mi Calm Calm - N/A   Overcast
12:50 PM 30.2 °F - 28.4 °F 93% 29.33 in 6.2 mi ESE 2.3 mph - N/A   Overcast
1:20 PM 32.0 °F - 28.4 °F 87% 29.33 in 6.2 mi Variable 2.3 mph - N/A   Overcast
1:50 PM 32.0 °F - 30.2 °F 93% 29.30 in 6.2 mi Variable 2.3 mph - N/A   Overcast
2:20 PM 32.0 °F - 30.2 °F 93% 29.27 in 6.2 mi Calm Calm - N/A   Overcast
2:50 PM 32.0 °F - 30.2 °F 93% 29.24 in 6.2 mi Calm Calm - N/A   Overcast
3:20 PM 32.0 °F - 30.2 °F 93% 29.24 in 6.2 mi Variable 1.2 mph - N/A   Overcast
3:50 PM 32.0 °F - 30.2 °F 93% 29.18 in 1.8 mi SE 1.2 mph - N/A   Light Ice Pellets
4:20 PM 32.0 °F - 30.2 °F 93% 29.15 in - Calm Calm - N/A Snow Light Snow
4:50 PM 32.0 °F - 30.2 °F 93% 29.12 in 3.1 mi Variable 1.2 mph - N/A Snow Light Snow
5:20 PM - - 32.0 °F N/A% 29.09 in 2.2 mi Calm Calm - N/A   Unknown
5:50 PM 32.0 °F - 32.0 °F 100% 29.06 in 4.3 mi Calm Calm - N/A Snow Light Snow
6:20 PM 32.0 °F - 32.0 °F 100% 29.03 in 1.4 mi Variable 2.3 mph - N/A Snow Light Snow
6:50 PM 32.0 °F 27.5 °F 32.0 °F 100% 29.03 in 0.7 mi ENE 4.6 mph - N/A Snow Light Snow
7:20 PM 32.0 °F 27.5 °F 32.0 °F 100% 29.00 in 1.3 mi ENE 4.6 mph - N/A Snow Light Snow
7:50 PM - - 32.0 °F N/A% 29.00 in 0.6 mi NE 8.1 mph - N/A   Unknown
8:20 PM 30.2 °F 22.6 °F 30.2 °F 100% 29.00 in - NE 8.1 mph - N/A Snow Snow
8:50 PM 30.2 °F 21.9 °F 30.2 °F 100% 29.00 in 1.1 mi NNE 9.2 mph - N/A Snow Light Snow
9:20 PM - - 32.0 °F N/A% 29.03 in 0.7 mi North 10.4 mph - N/A   Unknown
9:50 PM - - 32.0 °F N/A% 29.06 in 1.2 mi North 12.7 mph - N/A   Unknown
10:20 PM - - 32.0 °F N/A% 29.09 in 0.9 mi North 12.7 mph 24.2 mph N/A   Unknown
10:50 PM - - 32.0 °F N/A% 29.15 in 0.9 mi North 13.8 mph - N/A   Unknown
11:20 PM - - 32.0 °F N/A% 29.21 in 1.1 mi North 15.0 mph - N/A   Unknown
11:50 PM 30.2 °F 19.8 °F 28.4 °F 93% 29.24 in - NNW 13.8 mph - N/A Snow Light Snow